Weather in Phetchaboon

Thailand     16°25′31″N   101°09′47″E
temp.,
°C
wind,
m/s
gust,
m/s
humid.,
%
clouds,
%
prec.,
mm/h
press.,
hPa
HPBL,
m
28 november, sun
sun2801:00+19ne2277100 0.0 101528
04:00+18nne2277100 0.0 101525
07:00+18nne2379100 0.0 101648
10:00+24nnw3464100 0.0 1017567
13:00+27nnw345474 0.0 1013746
16:00+28nnw24625 0.0 1011446
19:00+21ene226837 0.0 101329
22:00+20ne227441 0.0 101512
29 november, mon
mon2901:00+18ne227856 0.0 101420
04:00+18ne2276100 0.0 101325
07:00+18nne227999 0.0 101438
10:00+24nnw3362100 0.0 1015499
13:00+28nw335398 0.0 1012811
16:00+28nw226274 0.0 1009219
19:00+23ene226839 0.0 101228
22:00+21ene227135 0.0 101413
30 november, tue
tue3001:00+20ne227558 0.0 101326
04:00+19ne227639 0.0 101234
07:00+19nne238270 0.0 101453
10:00+25n45605 0.0 1016773
13:00+29ne46475 0.0 10121622
16:00+27ne465714 0.0 1010296
19:00+21ne226568 0.0 101321
22:00+20ne2268100 0.0 101523
1 december, wed
wed101:00+19ne337095 0.0 101555
04:00+19nne346899 0.0 1015124
07:00+18nne347599 0.0 101790
10:00+23n455782 0.0 1017975
13:00+27nnw4448100 0.0 10131198
16:00+26n345887 0.0 1012450
19:00+21ene23658 0.0 101532
22:00+19ne22675 0.0 101617
2 december, thu
thu201:00+18ne226950 0.0 101527
04:00+17nne227394 0.0 101531
07:00+17nne3479100 0.0 101776
10:00+23n345497 0.0 1018883
13:00+26nnw444933 0.0 10151173
16:00+26nnw345997 0.0 1013514
19:00+20ene22635 0.0 101536
22:00+18ne226435 0.0 101813